Regional Weather Roundup
Issued by NWS

Home | Current Version | Previous Version | Graphics & Text | Print | Product List | Glossary On
Versions: 1 2 3 4 5 6 7 8 9 10 11 12 13 14 15 16 17 18 19 20 21 22 23 24 25 26 27 28 29 30 31 32 33 34 35 36 37 38 39 40 41 42 43 44 45 46 47 48 49 50
000
ASUS43 KFSD 310610
RWRSD

WEATHER ROUNDUP FOR SOUTH DAKOTA
NATIONAL WEATHER SERVICE SIOUX FALLS SD
100 AM CDT SUN AUG 31 2014

NOTE: "FAIR" INDICATES FEW OR NO CLOUDS BELOW 12,000 FEET WITH NO
SIGNIFICANT WEATHER AND/OR OBSTRUCTIONS TO VISIBILITY.


SDZ001>005-009-010-012>017-310700-
NORTHWEST AND NORTH CENTRAL SOUTH DAKOTA

CITY           SKY/WX    TMP DP  RH WIND       PRES   REMARKS
BUFFALO          N/A     61  59  93 W14       29.68S
FAITH            N/A     61  59  93 NW9       29.68F
MOBRIDGE       LGT RAIN  65  63  93 SE14G24   29.63F
$$

SDZ012>016-024>037-041>051-057-063-072>074-310700-
SOUTHWEST AND SOUTH CENTRAL SOUTH DAKOTA

CITY           SKY/WX    TMP DP  RH WIND       PRES   REMARKS
RAPID CTY ARPT LGT RAIN  62  57  83 N9        29.79R
PIERRE         CLOUDY    70  65  84 S15       29.62F
CUSTER         MOCLDY    56  46  69 W5        29.90F
ELLSWORTH AFB  LGT RAIN  62  59  88 N9        29.80R
PHILIP         CLOUDY    68  56  65 NW18G28   29.69F
PINE RIDGE     CLOUDY    67  56  67 SW8       29.80S
WINNER         FAIR      74  65  73 S15       29.72F
$$

SDZ004>011-016>023-039-040-310700-
NORTHEAST SOUTH DAKOTA

CITY           SKY/WX    TMP DP  RH WIND       PRES   REMARKS
ABERDEEN       MOCLDY    61  60  97 SE10      29.70F
WATERTOWN      FAIR      61  58  90 SE8       29.79F
SISSETON         N/A     59  59 100 S7        29.78F
$$

SDZ017-020-022-023-036>040-048>070-310700-
SOUTHEAST SOUTH DAKOTA

CITY           SKY/WX    TMP DP  RH WIND       PRES   REMARKS
SIOUX FALLS    FAIR      65  59  81 SE9       29.82F
HURON          MOCLDY    65  60  84 SE13G21   29.71F
CHAMBERLAIN    CLOUDY    67  64  91 SE7       29.71F
MITCHELL       CLEAR     66  62  87 SE13      29.74F
YANKTON        FAIR      63  61  94 E7        29.79F
$$

ABBREVIATIONS USED IN REMARKS
   TC - TEMPERATURE IN CELSIUS
  WCI - WIND CHILL INDEX
   HX - HEAT INDEX
  VSB - VISIBILITY




USA.gov is the U.S. government's official web portal to all federal, state and local government web resources and services.